TimeCST,TemperatureF,Dew PointF,Humidity,Sea Level PressureIn,VisibilityMPH,Wind Direction,Wind SpeedMPH,Gust SpeedMPH,PrecipitationIn,Events,Conditions,WindDirDegrees,DateUTC
12:51 AM,37.9,30.0,73,30.40,9.0,Calm,Calm,-,N/A,,Clear,0,2012-11-16 06:51:00
1:51 AM,37.0,30.0,76,30.42,9.0,Calm,Calm,-,N/A,,Clear,0,2012-11-16 07:51:00
2:51 AM,35.1,28.0,76,30.41,8.0,Calm,Calm,-,N/A,,Clear,0,2012-11-16 08:51:00
3:51 AM,35.1,28.9,78,30.41,9.0,Calm,Calm,-,N/A,,Clear,0,2012-11-16 09:51:00
4:51 AM,34.0,28.0,79,30.42,9.0,Calm,Calm,-,N/A,,Clear,0,2012-11-16 10:51:00
5:51 AM,33.8,28.4,81,30.42,9.0,Calm,Calm,-,N/A,,Clear,0,2012-11-16 11:51:00
6:51 AM,34.0,28.0,79,30.45,8.0,Calm,Calm,-,N/A,,Clear,0,2012-11-16 12:51:00
7:51 AM,37.9,30.9,76,30.47,8.0,Calm,Calm,-,N/A,,Clear,0,2012-11-16 13:51:00
8:51 AM,46.0,33.1,61,30.47,8.0,Calm,Calm,-,N/A,,Clear,0,2012-11-16 14:51:00
9:51 AM,50.0,30.9,48,30.48,9.0,Calm,Calm,-,N/A,,Clear,0,2012-11-16 15:51:00
10:51 AM,54.0,30.0,40,30.47,10.0,ESE,4.6,-,N/A,,Clear,120,2012-11-16 16:51:00
11:51 AM,55.9,30.0,37,30.45,10.0,Calm,Calm,-,N/A,,Clear,0,2012-11-16 17:51:00
12:51 PM,57.0,30.0,36,30.45,10.0,Calm,Calm,-,N/A,,Clear,0,2012-11-16 18:51:00
1:51 PM,57.9,30.9,36,30.43,10.0,Calm,Calm,-,N/A,,Clear,0,2012-11-16 19:51:00
2:51 PM,60.1,28.9,31,30.43,10.0,Calm,Calm,-,N/A,,Clear,0,2012-11-16 20:51:00
3:51 PM,57.9,30.0,35,30.43,10.0,Calm,Calm,-,N/A,,Clear,0,2012-11-16 21:51:00
4:51 PM,51.1,32.0,48,30.44,10.0,East,8.1,-,N/A,,Clear,100,2012-11-16 22:51:00
5:51 PM,48.9,30.9,50,30.45,10.0,East,3.5,-,N/A,,Clear,80,2012-11-16 23:51:00
6:51 PM,45.0,32.0,60,30.46,10.0,ESE,6.9,-,N/A,,Clear,120,2012-11-17 00:51:00
7:51 PM,44.1,30.9,60,30.46,10.0,ESE,4.6,-,N/A,,Clear,110,2012-11-17 01:51:00
8:51 PM,45.0,30.9,58,30.47,10.0,East,4.6,-,N/A,,Clear,100,2012-11-17 02:51:00
9:51 PM,42.1,30.0,62,30.47,10.0,East,3.5,-,N/A,,Clear,100,2012-11-17 03:51:00
10:51 PM,39.9,30.0,68,30.47,10.0,ESE,4.6,-,N/A,,Clear,110,2012-11-17 04:51:00
11:51 PM,37.9,30.0,73,30.48,8.0,ESE,6.9,-,N/A,,Clear,110,2012-11-17 05:51:00